| time (UTC) | temp C | wind direction | speed KPH | gust KPH | rain 1hr cm | rain 24hr cm | rain mn cm | humidity % | barometer mb |
| 20260506112429 | 19 | 269 | 1.6 | 1.6 | 0.00 | 0.00 | 0.00 | 63 | 1005.0 |
| 20260506111928 | 19 | 16 | 1.6 | 1.6 | 0.00 | 0.00 | 0.00 | 62 | 1005.0 |
| 20260506111427 | 19 | 7 | 0.0 | 1.6 | 0.00 | 0.00 | 0.00 | 63 | 1005.0 |
| 20260506110927 | 18 | 261 | 1.6 | 1.6 | 0.00 | 0.00 | 0.00 | 64 | 1005.0 |
| 20260506110428 | 18 | 49 | 0.0 | 1.6 | 0.00 | 0.00 | 0.00 | 68 | 1005.0 |
| 20260506105929 | 18 | 251 | 1.6 | 1.6 | 0.00 | 0.00 | 0.00 | 66 | 1005.0 |
| 20260506104940 | 18 | 283 | 1.6 | 1.6 | 0.00 | 0.00 | 0.00 | 67 | 1005.0 |
| 20260506104429 | 18 | 324 | 1.6 | 1.6 | 0.00 | 0.00 | 0.00 | 66 | 1005.0 |
| 20260506103929 | 18 | 29 | 0.0 | 0.0 | 0.00 | 0.00 | 0.00 | 66 | 1005.0 |
| 20260506103429 | 18 | 238 | 1.6 | 1.6 | 0.00 | 0.00 | 0.00 | 68 | 1005.0 |
| 20260506102930 | 18 | 37 | 1.6 | 1.6 | 0.00 | 0.00 | 0.00 | 68 | 1005.0 |
| 20260506102428 | 17 | 326 | 1.6 | 1.6 | 0.00 | 0.00 | 0.00 | 69 | 1005.0 |
| 20260506101927 | 17 | 351 | 0.0 | 0.0 | 0.00 | 0.00 | 0.00 | 70 | 1005.0 |
| 20260506101429 | 17 | 25 | 3.2 | 3.2 | 0.00 | 0.00 | 0.00 | 71 | 1006.0 |
| 20260506100927 | 17 | 206 | 1.6 | 1.6 | 0.00 | 0.00 | 0.00 | 74 | 1005.0 |
| 20260506100428 | 16 | 341 | 0.0 | 0.0 | 0.00 | 0.00 | 0.00 | 72 | 1005.0 |
| 20260506095927 | 16 | 36 | 0.0 | 0.0 | 0.00 | 0.00 | 0.00 | 75 | 1006.0 |
| 20260506095427 | 17 | 242 | 4.8 | 4.8 | 0.00 | 0.00 | 0.00 | 70 | 1006.0 |
| 20260506094928 | 17 | 81 | 3.2 | 3.2 | 0.00 | 0.00 | 0.00 | 72 | 1005.0 |
| 20260506094428 | 16 | 286 | 1.6 | 1.6 | 0.00 | 0.00 | 0.00 | 73 | 1005.0 |
| 20260506093925 | 16 | 318 | 0.0 | 0.0 | 0.00 | 0.00 | 0.00 | 72 | 1006.0 |
| 20260506093428 | 16 | 26 | 1.6 | 1.6 | 0.00 | 0.00 | 0.00 | 73 | 1006.0 |
| 20260506092926 | 16 | 293 | 0.0 | 1.6 | 0.00 | 0.00 | 0.00 | 75 | 1006.0 |
| 20260506092426 | 16 | 293 | 0.0 | 0.0 | 0.00 | 0.00 | 0.00 | 75 | 1006.0 |
| 20260506091928 | 16 | 258 | 3.2 | 3.2 | 0.00 | 0.00 | 0.00 | 76 | 1005.0 |
| 20260506091429 | 16 | 282 | 1.6 | 1.6 | 0.00 | 0.00 | 0.00 | 75 | 1006.0 |
| 20260506090929 | 16 | 45 | 0.0 | 0.0 | 0.00 | 0.00 | 0.00 | 77 | 1006.0 |
| 20260506090427 | 16 | 32 | 0.0 | 1.6 | 0.00 | 0.00 | 0.00 | 77 | 1005.0 |
| 20260506085927 | 16 | 259 | 1.6 | 1.6 | 0.00 | 0.00 | 0.00 | 75 | 1005.0 |
| 20260506085426 | 16 | 2 | 1.6 | 1.6 | 0.00 | 0.00 | 0.00 | 76 | 1006.0 |
| 20260506084925 | 16 | 295 | 1.6 | 3.2 | 0.00 | 0.00 | 0.00 | 76 | 1006.0 |
| 20260506084428 | 15 | 290 | 6.4 | 8.0 | 0.00 | 0.00 | 0.00 | 76 | 1005.0 |
| 20260506083927 | 16 | 256 | 4.8 | 4.8 | 0.00 | 0.00 | 0.00 | 76 | 1005.0 |
| 20260506083427 | 16 | 285 | 1.6 | 3.2 | 0.00 | 0.00 | 0.00 | 77 | 1006.0 |
| 20260506082927 | 15 | 40 | 1.6 | 1.6 | 0.00 | 0.00 | 0.00 | 76 | 1006.0 |
| 20260506082428 | 15 | 276 | 1.6 | 1.6 | 0.00 | 0.00 | 0.00 | 77 | 1006.0 |
| 20260506081927 | 15 | 284 | 1.6 | 3.2 | 0.00 | 0.00 | 0.00 | 77 | 1005.0 |
| 20260506081425 | 15 | 278 | 1.6 | 1.6 | 0.00 | 0.00 | 0.00 | 77 | 1006.0 |
| 20260506080927 | 15 | 89 | 0.0 | 0.0 | 0.00 | 0.00 | 0.00 | 77 | 1006.0 |
| 20260506080428 | 15 | 240 | 1.6 | 1.6 | 0.00 | 0.00 | 0.00 | 76 | 1006.0 |
| 20260506073428 | 15 | 70 | 0.0 | 0.0 | 0.00 | 0.00 | 0.00 | 77 | 1006.0 |
| 20260506072927 | 15 | 229 | 1.6 | 1.6 | 0.00 | 0.00 | 0.00 | 79 | 1006.0 |
| 20260506072426 | 15 | 185 | 1.6 | 1.6 | 0.00 | 0.00 | 0.00 | 78 | 1006.0 |
| 20260506071928 | 15 | 35 | 0.0 | 0.0 | 0.00 | 0.00 | 0.00 | 78 | 1006.0 |
| 20260506071427 | 15 | 182 | 0.0 | 1.6 | 0.00 | 0.00 | 0.00 | 78 | 1006.0 |
| 20260506070927 | 15 | 31 | 0.0 | 0.0 | 0.00 | 0.00 | 0.00 | 78 | 1006.0 |
| 20260506070426 | 15 | 255 | 1.6 | 3.2 | 0.00 | 0.00 | 0.00 | 79 | 1006.0 |
| 20260506062431 | 13 | 57 | 0.0 | 0.0 | 0.00 | 0.00 | 0.00 | 87 | 1006.0 |
| 20260506061928 | 12 | 41 | 0.0 | 0.0 | 0.00 | 0.00 | 0.00 | 90 | 1006.0 |
| 20260506061425 | 12 | 321 | 0.0 | 1.6 | 0.00 | 0.00 | 0.00 | 92 | 1006.0 |
| 20260506060927 | 11 | 1 | 0.0 | 1.6 | 0.00 | 0.00 | 0.00 | 94 | 1006.0 |
| 20260506060428 | 11 | 346 | 0.0 | 0.0 | 0.00 | 0.00 | 0.00 | 96 | 1006.0 |
| 20260506050927 | 9 | 29 | 0.0 | 0.0 | 0.00 | 0.00 | 0.00 | 99 | 1006.0 |
| 20260506050425 | 9 | 46 | 0.0 | 0.0 | 0.00 | 0.00 | 0.00 | 99 | 1006.0 |
| 20260506044925 | 8 | 23 | 0.0 | 0.0 | 0.00 | 0.00 | 0.00 | 99 | 1006.0 |
| 20260506044426 | 8 | 26 | 0.0 | 0.0 | 0.00 | 0.00 | 0.00 | 99 | 1006.0 |
| 20260506043925 | 8 | 23 | 0.0 | 0.0 | 0.00 | 0.00 | 0.00 | 99 | 1006.0 |
| 20260506043426 | 8 | 23 | 0.0 | 0.0 | 0.00 | 0.00 | 0.00 | 99 | 1006.0 |
| 20260506042926 | 8 | 22 | 0.0 | 0.0 | 0.00 | 0.00 | 0.00 | 99 | 1006.0 |
| 20260506042427 | 8 | 22 | 0.0 | 0.0 | 0.00 | 0.00 | 0.00 | 99 | 1007.0 |
| 20260506041927 | 8 | 42 | 0.0 | 0.0 | 0.00 | 0.00 | 0.00 | 99 | 1006.0 |
| 20260506041426 | 8 | 27 | 0.0 | 0.0 | 0.00 | 0.00 | 0.00 | 99 | 1006.0 |
| 20260506040927 | 8 | 31 | 0.0 | 0.0 | 0.00 | 0.00 | 0.00 | 99 | 1007.0 |
| 20260506040425 | 8 | 22 | 0.0 | 0.0 | 0.00 | 0.00 | 0.00 | 99 | 1006.0 |
| 20260506035927 | 7 | 22 | 0.0 | 0.0 | 0.00 | 0.00 | 0.00 | 99 | 1006.0 |
| 20260506035427 | 7 | 22 | 0.0 | 0.0 | 0.00 | 0.00 | 0.00 | 99 | 1006.0 |
| 20260506034925 | 7 | 23 | 0.0 | 0.0 | 0.00 | 0.00 | 0.00 | 99 | 1006.0 |
| 20260506034426 | 8 | 23 | 0.0 | 0.0 | 0.00 | 0.00 | 0.00 | 99 | 1007.0 |
| 20260506033925 | 8 | 23 | 0.0 | 0.0 | 0.00 | 0.00 | 0.00 | 99 | 1006.0 |
| 20260506033427 | 8 | 22 | 0.0 | 0.0 | 0.00 | 0.00 | 0.00 | 99 | 1007.0 |
| 20260506032931 | 8 | 23 | 0.0 | 0.0 | 0.00 | 0.00 | 0.00 | 99 | 1007.0 |
| 20260506032427 | 8 | 18 | 0.0 | 0.0 | 0.00 | 0.00 | 0.00 | 99 | 1007.0 |
| 20260506031927 | 8 | 20 | 0.0 | 0.0 | 0.00 | 0.00 | 0.00 | 99 | 1007.0 |
| 20260506031427 | 8 | 20 | 0.0 | 0.0 | 0.00 | 0.00 | 0.00 | 99 | 1006.0 |
| 20260506030926 | 8 | 21 | 0.0 | 0.0 | 0.00 | 0.00 | 0.00 | 99 | 1007.0 |
| 20260506030427 | 8 | 1 | 0.0 | 0.0 | 0.00 | 0.00 | 0.00 | 99 | 1007.0 |
| 20260506025925 | 8 | 2 | 0.0 | 0.0 | 0.00 | 0.00 | 0.00 | 99 | 1007.0 |
| 20260506025427 | 8 | 6 | 0.0 | 0.0 | 0.00 | 0.00 | 0.00 | 99 | 1007.0 |
| 20260506024926 | 8 | 26 | 0.0 | 0.0 | 0.00 | 0.00 | 0.00 | 99 | 1007.0 |
| 20260506024425 | 8 | 16 | 0.0 | 0.0 | 0.00 | 0.00 | 0.00 | 99 | 1007.0 |
| 20260506023925 | 8 | 21 | 0.0 | 0.0 | 0.00 | 0.00 | 0.00 | 99 | 1007.0 |
| 20260506023426 | 8 | 16 | 0.0 | 1.6 | 0.00 | 0.00 | 0.00 | 99 | 1006.0 |
| 20260506022926 | 8 | 89 | 0.0 | 0.0 | 0.00 | 0.00 | 0.00 | 99 | 1007.0 |
| 20260506022427 | 8 | 19 | 0.0 | 0.0 | 0.00 | 0.00 | 0.00 | 99 | 1007.0 |
| 20260506021927 | 8 | 17 | 0.0 | 0.0 | 0.00 | 0.00 | 0.00 | 99 | 1007.0 |
| 20260506021425 | 8 | 17 | 0.0 | 0.0 | 0.00 | 0.00 | 0.00 | 99 | 1007.0 |
| 20260506020927 | 9 | 17 | 0.0 | 0.0 | 0.00 | 0.00 | 0.00 | 99 | 1007.0 |
| 20260506020427 | 8 | 34 | 0.0 | 0.0 | 0.00 | 0.00 | 0.00 | 99 | 1007.0 |
| 20260506015926 | 9 | 21 | 0.0 | 0.0 | 0.00 | 0.00 | 0.00 | 99 | 1007.0 |
| 20260506015426 | 9 | 46 | 1.6 | 1.6 | 0.00 | 0.00 | 0.00 | 99 | 1007.0 |
| 20260506014926 | 9 | 25 | 0.0 | 0.0 | 0.00 | 0.00 | 0.00 | 99 | 1007.0 |
| 20260506014428 | 9 | 345 | 0.0 | 0.0 | 0.00 | 0.00 | 0.00 | 99 | 1007.0 |
| 20260506013926 | 9 | 25 | 0.0 | 0.0 | 0.00 | 0.00 | 0.00 | 99 | 1007.0 |
| 20260506013426 | 9 | 25 | 0.0 | 0.0 | 0.00 | 0.00 | 0.00 | 99 | 1007.0 |
| 20260506012926 | 9 | 32 | 0.0 | 0.0 | 0.00 | 0.00 | 0.00 | 99 | 1007.0 |
| 20260506012425 | 9 | 24 | 0.0 | 0.0 | 0.00 | 0.00 | 0.00 | 99 | 1007.0 |
| 20260506011925 | 9 | 6 | 0.0 | 1.6 | 0.00 | 0.00 | 0.00 | 99 | 1006.0 |
| 20260506011425 | 9 | 23 | 0.0 | 0.0 | 0.00 | 0.00 | 0.00 | 99 | 1007.0 |
| 20260506010925 | 9 | 30 | 0.0 | 0.0 | 0.00 | 0.00 | 0.00 | 99 | 1007.0 |
| 20260506010428 | 8 | 62 | 0.0 | 0.0 | 0.00 | 0.00 | 0.00 | 99 | 1006.0 |
| 20260506005925 | 8 | 21 | 0.0 | 0.0 | 0.00 | 0.00 | 0.00 | 99 | 1006.0 |
| 20260506005427 | 8 | 21 | 0.0 | 0.0 | 0.00 | 0.00 | 0.00 | 99 | 1007.0 |
| 20260506004927 | 8 | 20 | 0.0 | 0.0 | 0.00 | 0.00 | 0.00 | 99 | 1007.0 |
| 20260506004427 | 8 | 20 | 0.0 | 0.0 | 0.00 | 0.00 | 0.00 | 98 | 1007.0 |
| 20260506003925 | 9 | 21 | 0.0 | 0.0 | 0.00 | 0.00 | 0.00 | 99 | 1007.0 |
| 20260506003427 | 9 | 20 | 0.0 | 0.0 | 0.00 | 0.00 | 0.00 | 98 | 1007.0 |
| 20260506002925 | 9 | 20 | 0.0 | 0.0 | 0.00 | 0.00 | 0.00 | 98 | 1007.0 |
| 20260506002427 | 9 | 18 | 0.0 | 0.0 | 0.00 | 0.00 | 0.00 | 98 | 1007.0 |
| 20260506001925 | 9 | 20 | 0.0 | 0.0 | 0.00 | 0.00 | 0.00 | 98 | 1007.0 |
| 20260506001425 | 9 | 20 | 0.0 | 0.0 | 0.00 | 0.00 | 0.00 | 98 | 1007.0 |
| 20260506000925 | 9 | 20 | 0.0 | 0.0 | 0.00 | 0.00 | 0.00 | 97 | 1007.0 |
| 20260506000425 | 10 | 20 | 0.0 | 0.0 | 0.00 | 0.00 | 0.00 | 97 | 1007.0 |
| 20260505235925 | 10 | 18 | 0.0 | 0.0 | 0.00 | 0.00 | 0.00 | 97 | 1007.0 |
| 20260505235427 | 10 | 18 | 0.0 | 0.0 | 0.00 | 0.00 | 0.00 | 97 | 1007.0 |
| 20260505234926 | 10 | 18 | 0.0 | 0.0 | 0.00 | 0.00 | 0.00 | 96 | 1007.0 |
| 20260505234425 | 10 | 18 | 0.0 | 0.0 | 0.00 | 0.00 | 0.00 | 96 | 1007.0 |
| 20260505233926 | 10 | 351 | 0.0 | 0.0 | 0.00 | 0.00 | 0.00 | 96 | 1007.0 |
| 20260505233427 | 10 | 347 | 0.0 | 0.0 | 0.00 | 0.00 | 0.00 | 96 | 1007.0 |
| 20260505232926 | 10 | 56 | 0.0 | 0.0 | 0.00 | 0.00 | 0.00 | 95 | 1007.0 |
| 20260505232425 | 10 | 56 | 0.0 | 0.0 | 0.00 | 0.00 | 0.00 | 95 | 1007.0 |
| 20260505231926 | 11 | 56 | 0.0 | 0.0 | 0.00 | 0.00 | 0.00 | 95 | 1007.0 |
| 20260505231427 | 11 | 56 | 0.0 | 0.0 | 0.00 | 0.00 | 0.00 | 94 | 1007.0 |
| 20260505230926 | 11 | 56 | 0.0 | 0.0 | 0.00 | 0.00 | 0.00 | 94 | 1007.0 |
| 20260505230427 | 11 | 54 | 0.0 | 0.0 | 0.00 | 0.00 | 0.00 | 95 | 1007.0 |
| 20260505225927 | 11 | 49 | 0.0 | 0.0 | 0.00 | 0.00 | 0.00 | 95 | 1008.0 |
| 20260505225425 | 11 | 39 | 0.0 | 0.0 | 0.00 | 0.00 | 0.00 | 96 | 1008.0 |
| 20260505224925 | 11 | 46 | 0.0 | 0.0 | 0.00 | 0.00 | 0.00 | 95 | 1008.0 |
| 20260505224425 | 11 | 46 | 0.0 | 0.0 | 0.00 | 0.00 | 0.00 | 95 | 1008.0 |
| 20260505223926 | 11 | 46 | 0.0 | 0.0 | 0.00 | 0.00 | 0.00 | 95 | 1007.0 |
| 20260505223427 | 11 | 46 | 0.0 | 0.0 | 0.00 | 0.00 | 0.00 | 94 | 1007.0 |
| 20260505222925 | 11 | 46 | 0.0 | 0.0 | 0.00 | 0.00 | 0.00 | 93 | 1007.0 |
| 20260505222427 | 11 | 46 | 0.0 | 0.0 | 0.00 | 0.00 | 0.00 | 93 | 1007.0 |
| 20260505221925 | 11 | 68 | 0.0 | 0.0 | 0.00 | 0.00 | 0.00 | 93 | 1008.0 |
| 20260505221427 | 11 | 68 | 0.0 | 0.0 | 0.00 | 0.00 | 0.00 | 93 | 1007.0 |
| 20260505220927 | 11 | 39 | 0.0 | 0.0 | 0.00 | 0.00 | 0.00 | 93 | 1007.0 |
| 20260505220425 | 11 | 79 | 0.0 | 0.0 | 0.00 | 0.00 | 0.00 | 92 | 1007.0 |
| 20260505215928 | 11 | 80 | 0.0 | 0.0 | 0.00 | 0.00 | 0.00 | 91 | 1007.0 |
| 20260505215427 | 12 | 60 | 0.0 | 0.0 | 0.00 | 0.00 | 0.00 | 91 | 1007.0 |
| 20260505214927 | 12 | 73 | 0.0 | 0.0 | 0.00 | 0.00 | 0.00 | 90 | 1007.0 |
| 20260505214427 | 12 | 249 | 0.0 | 0.0 | 0.00 | 0.00 | 0.00 | 89 | 1007.0 |
| 20260505213926 | 12 | 254 | 0.0 | 1.6 | 0.00 | 0.00 | 0.00 | 88 | 1007.0 |
| 20260505213427 | 12 | 168 | 0.0 | 0.0 | 0.00 | 0.00 | 0.00 | 88 | 1007.0 |
| 20260505212926 | 12 | 83 | 0.0 | 0.0 | 0.00 | 0.00 | 0.00 | 88 | 1007.0 |
| 20260505212427 | 12 | 255 | 0.0 | 1.6 | 0.00 | 0.00 | 0.00 | 89 | 1007.0 |
| 20260505211925 | 12 | 246 | 0.0 | 1.6 | 0.00 | 0.00 | 0.00 | 90 | 1007.0 |
| 20260505211427 | 12 | 315 | 0.0 | 0.0 | 0.00 | 0.00 | 0.00 | 94 | 1007.0 |
| 20260505210928 | 12 | 341 | 0.0 | 1.6 | 0.00 | 0.00 | 0.00 | 94 | 1007.0 |
| 20260505210429 | 12 | 31 | 0.0 | 0.0 | 0.00 | 0.00 | 0.00 | 94 | 1007.0 |
| 20260505205927 | 12 | 30 | 0.0 | 0.0 | 0.00 | 0.00 | 0.00 | 93 | 1007.0 |
| 20260505205427 | 12 | 49 | 0.0 | 0.0 | 0.00 | 0.00 | 0.00 | 93 | 1007.0 |
| 20260505204929 | 12 | 46 | 0.0 | 0.0 | 0.00 | 0.00 | 0.00 | 93 | 1007.0 |
| 20260505204429 | 12 | 337 | 0.0 | 0.0 | 0.00 | 0.00 | 0.00 | 93 | 1007.0 |
| 20260505203927 | 12 | 24 | 0.0 | 0.0 | 0.00 | 0.00 | 0.00 | 94 | 1007.0 |
| 20260505203427 | 12 | 318 | 0.0 | 0.0 | 0.00 | 0.00 | 0.00 | 94 | 1007.0 |
| 20260505202926 | 12 | 63 | 0.0 | 0.0 | 0.00 | 0.00 | 0.00 | 94 | 1007.0 |
| 20260505202427 | 12 | 44 | 0.0 | 0.0 | 0.00 | 0.00 | 0.00 | 93 | 1007.0 |
| 20260505201927 | 12 | 44 | 0.0 | 0.0 | 0.00 | 0.00 | 0.00 | 93 | 1007.0 |
| 20260505201429 | 12 | 43 | 0.0 | 0.0 | 0.00 | 0.00 | 0.00 | 92 | 1007.0 |
| 20260505200927 | 12 | 44 | 0.0 | 0.0 | 0.00 | 0.00 | 0.00 | 92 | 1007.0 |
| 20260505200428 | 12 | 43 | 0.0 | 0.0 | 0.00 | 0.00 | 0.00 | 92 | 1007.0 |
| 20260505195931 | 13 | 13 | 0.0 | 0.0 | 0.00 | 0.00 | 0.00 | 92 | 1007.0 |
| 20260505195429 | 13 | 16 | 0.0 | 0.0 | 0.00 | 0.00 | 0.00 | 92 | 1007.0 |
| 20260505194929 | 13 | 346 | 0.0 | 0.0 | 0.00 | 0.00 | 0.00 | 92 | 1007.0 |
| 20260505194426 | 13 | 287 | 0.0 | 0.0 | 0.00 | 0.00 | 0.00 | 91 | 1007.0 |
| 20260505193927 | 13 | 273 | 1.6 | 1.6 | 0.00 | 0.00 | 0.00 | 91 | 1007.0 |
| 20260505193427 | 13 | 275 | 1.6 | 3.2 | 0.00 | 0.00 | 0.00 | 91 | 1007.0 |
| 20260505192927 | 13 | 290 | 3.2 | 3.2 | 0.00 | 0.00 | 0.00 | 91 | 1007.0 |
| 20260505192427 | 13 | 311 | 1.6 | 3.2 | 0.00 | 0.00 | 0.00 | 92 | 1006.0 |
| 20260505191928 | 13 | 281 | 1.6 | 1.6 | 0.00 | 0.00 | 0.00 | 91 | 1007.0 |
| 20260505191427 | 13 | 267 | 1.6 | 1.6 | 0.00 | 0.00 | 0.00 | 91 | 1007.0 |
| 20260505190926 | 13 | 314 | 0.0 | 0.0 | 0.00 | 0.00 | 0.00 | 91 | 1006.0 |
| 20260505190426 | 13 | 276 | 3.2 | 3.2 | 0.00 | 0.00 | 0.00 | 91 | 1007.0 |
| 20260505185928 | 13 | 269 | 3.2 | 4.8 | 0.00 | 0.00 | 0.00 | 91 | 1006.0 |
| 20260505185428 | 13 | 251 | 3.2 | 4.8 | 0.00 | 0.00 | 0.00 | 90 | 1007.0 |
| 20260505184928 | 13 | 273 | 1.6 | 3.2 | 0.00 | 0.00 | 0.00 | 90 | 1006.0 |
| 20260505184427 | 13 | 298 | 4.8 | 8.0 | 0.00 | 0.00 | 0.00 | 90 | 1006.0 |
| 20260505183925 | 13 | 267 | 3.2 | 3.2 | 0.00 | 0.00 | 0.00 | 91 | 1006.0 |
| 20260505183429 | 13 | 299 | 3.2 | 3.2 | 0.00 | 0.00 | 0.00 | 91 | 1006.0 |
| 20260505182929 | 13 | 294 | 1.6 | 3.2 | 0.00 | 0.00 | 0.00 | 91 | 1006.0 |
| 20260505182427 | 13 | 336 | 0.0 | 0.0 | 0.00 | 0.00 | 0.00 | 90 | 1006.0 |
| 20260505181440 | 14 | 258 | 1.6 | 1.6 | 0.00 | 0.00 | 0.00 | 89 | 1006.0 |
| 20260505180927 | 13 | 326 | 1.6 | 3.2 | 0.00 | 0.00 | 0.00 | 89 | 1006.0 |
| 20260505180428 | 13 | 332 | 1.6 | 3.2 | 0.00 | 0.00 | 0.00 | 90 | 1006.0 |
| 20260505175925 | 13 | 240 | 0.0 | 0.0 | 0.00 | 0.00 | 0.00 | 90 | 1006.0 |
| 20260505175426 | 14 | 269 | 0.0 | 1.6 | 0.00 | 0.00 | 0.00 | 90 | 1006.0 |
| 20260505174927 | 13 | 354 | 0.0 | 0.0 | 0.00 | 0.00 | 0.00 | 90 | 1006.0 |
| 20260505174428 | 13 | 336 | 0.0 | 0.0 | 0.00 | 0.00 | 0.00 | 90 | 1006.0 |
| 20260505173927 | 13 | 24 | 0.0 | 0.0 | 0.00 | 0.00 | 0.00 | 90 | 1006.0 |
| 20260505173425 | 13 | 308 | 0.0 | 1.6 | 0.00 | 0.00 | 0.00 | 90 | 1006.0 |
| 20260505172927 | 13 | 235 | 0.0 | 0.0 | 0.00 | 0.00 | 0.00 | 89 | 1006.0 |
| 20260505172428 | 13 | 268 | 4.8 | 4.8 | 0.00 | 0.00 | 0.00 | 89 | 1006.0 |
| 20260505171926 | 13 | 294 | 3.2 | 4.8 | 0.00 | 0.00 | 0.00 | 88 | 1006.0 |
| 20260505171426 | 14 | 255 | 1.6 | 3.2 | 0.00 | 0.00 | 0.00 | 89 | 1006.0 |
| 20260505170927 | 14 | 276 | 3.2 | 3.2 | 0.00 | 0.00 | 0.00 | 88 | 1006.0 |
| 20260505170426 | 14 | 217 | 3.2 | 3.2 | 0.00 | 0.00 | 0.00 | 87 | 1006.0 |
| 20260505165928 | 15 | 288 | 3.2 | 3.2 | 0.00 | 0.00 | 0.00 | 87 | 1006.0 |
| 20260505165427 | 15 | 258 | 3.2 | 4.8 | 0.00 | 0.00 | 0.00 | 88 | 1006.0 |
| 20260505164929 | 15 | 279 | 4.8 | 4.8 | 0.00 | 0.00 | 0.00 | 87 | 1006.0 |
| 20260505164431 | 15 | 284 | 4.8 | 4.8 | 0.00 | 0.00 | 0.00 | 87 | 1006.0 |
| 20260505163926 | 14 | 307 | 6.4 | 9.7 | 0.00 | 0.00 | 0.00 | 87 | 1006.0 |
| 20260505163425 | 14 | 250 | 4.8 | 4.8 | 0.00 | 0.00 | 0.00 | 87 | 1006.0 |
| 20260505162928 | 14 | 265 | 4.8 | 4.8 | 0.00 | 0.00 | 0.00 | 87 | 1006.0 |
| 20260505162428 | 14 | 310 | 6.4 | 9.7 | 0.00 | 0.00 | 0.00 | 87 | 1006.0 |
| 20260505161929 | 14 | 253 | 4.8 | 8.0 | 0.00 | 0.00 | 0.00 | 87 | 1006.0 |
| 20260505161425 | 14 | 275 | 6.4 | 9.7 | 0.00 | 0.00 | 0.00 | 89 | 1006.0 |
| 20260505160928 | 14 | 273 | 1.6 | 3.2 | 0.00 | 0.00 | 0.00 | 90 | 1006.0 |
| 20260505160426 | 14 | 286 | 1.6 | 3.2 | 0.00 | 0.00 | 0.00 | 90 | 1006.0 |
| 20260505152925 | 15 | 307 | 8.0 | 14.5 | 0.00 | 0.00 | 0.00 | 90 | 1006.0 |
| 20260505152428 | 15 | 268 | 8.0 | 12.9 | 0.00 | 0.00 | 0.00 | 89 | 1006.0 |
| 20260505151928 | 15 | 299 | 11.3 | 17.7 | 0.00 | 0.00 | 0.00 | 87 | 1006.0 |
| 20260505151428 | 15 | 320 | 9.7 | 12.9 | 0.00 | 0.00 | 0.00 | 86 | 1006.0 |
| 20260505150931 | 15 | 241 | 11.3 | 17.7 | 0.00 | 0.00 | 0.00 | 85 | 1006.0 |
| 20260505150427 | 15 | 230 | 9.7 | 12.9 | 0.00 | 0.00 | 0.00 | 86 | 1006.0 |
| 20260505140429 | 16 | 319 | 3.2 | 3.2 | 0.00 | 0.00 | 0.00 | 80 | 1006.0 |
| 20260505124929 | 21 | 338 | 0.0 | 0.0 | 0.00 | 0.00 | 0.00 | 55 | 1006.0 |
| 20260505124425 | 21 | 238 | 1.6 | 1.6 | 0.00 | 0.00 | 0.00 | 52 | 1006.0 |
| 20260505123928 | 21 | 157 | 1.6 | 1.6 | 0.00 | 0.00 | 0.00 | 56 | 1006.0 |
| 20260505123428 | 21 | 241 | 3.2 | 3.2 | 0.00 | 0.00 | 0.00 | 52 | 1006.0 |
| 20260505122926 | 21 | 347 | 1.6 | 1.6 | 0.00 | 0.00 | 0.00 | 54 | 1006.0 |
| 20260505122427 | 21 | 330 | 1.6 | 3.2 | 0.00 | 0.00 | 0.00 | 53 | 1006.0 |
| 20260505121927 | 21 | 258 | 3.2 | 3.2 | 0.00 | 0.00 | 0.00 | 50 | 1006.0 |
| 20260505121427 | 21 | 277 | 1.6 | 1.6 | 0.00 | 0.00 | 0.00 | 53 | 1006.0 |
| 20260505120928 | 21 | 221 | 6.4 | 8.0 | 0.00 | 0.00 | 0.00 | 51 | 1006.0 |
| 20260505120425 | 21 | 224 | 4.8 | 4.8 | 0.00 | 0.00 | 0.00 | 52 | 1006.0 |
| 20260505115925 | 21 | 311 | 0.0 | 1.6 | 0.00 | 0.00 | 0.00 | 52 | 1006.0 |
| 20260505115426 | 21 | 329 | 3.2 | 3.2 | 0.00 | 0.00 | 0.00 | 53 | 1006.0 |
| 20260505114927 | 21 | 243 | 3.2 | 3.2 | 0.00 | 0.00 | 0.00 | 52 | 1006.0 |
| 20260505114425 | 21 | 281 | 3.2 | 3.2 | 0.00 | 0.00 | 0.00 | 53 | 1006.0 |
| 20260505113927 | 21 | 267 | 1.6 | 1.6 | 0.00 | 0.00 | 0.00 | 51 | 1006.0 |
| 20260505113431 | 21 | 280 | 3.2 | 4.8 | 0.00 | 0.00 | 0.00 | 51 | 1006.0 |